User: anonymous   Login
Location: Iesi
(43.5167°N, 13.2333°E)
Time: 15:55:39
(UTC+00:00)
Language:

ALOS 2 - Orbit

View from above orbital plane
View from above orbital plane
View from above satellite
View from above satellite

Ground track
Ground track

The orbit data is extracted from the following two-line orbital elements,

1 39766U 14029A   20293.14399281  .00000085  00000-0  18200-4 0  9998
2 39766  97.9230  27.9716 0001441  88.7560 271.3820 14.79471976345986
Epoch (UTC): 19 October 2020 03:27:20
Eccentricity: 0.0001441
inclination: 97.9230°
perigee height: 630 km
apogee height: 632 km
right ascension of ascending node: 27.9716°
argument of perigee: 88.7560°
revolutions per day: 14.79471976
mean anomaly at epoch: 271.3820°
orbit number at epoch: 34598

The dashed part of the orbit path shows where the satellite is in the earth's shadow,  

DLR